Warning: Javascript must be enabled to use all the features on this page!


Page Loading - Please Wait...

* We've detected you're using a mobile device. Find our Next Generation Station Page here.
Click to hideNews Bulletins

Peak Streamflow for the Nation

USGS 01184490 BROAD BROOK AT BROAD BROOK, CT

Hartford County, Connecticut
Hydrologic Unit Code 01080205
Latitude  41°54'50.03", Longitude  72°32'58.92" NAD83
Drainage area 15.5  square miles
Gage datum 46.21 feet above NGVD29
Output formats
Table
Graph
Tab-separated file
peakfq (watstore) format
Reselect output format
Water
Year
Date Gage
Height
(feet)
Stream-
flow
(cfs)
1938 1938-09-21   9607
1962 1962-03-12 4.13 526
1963 1963-03-06 2.82 264
1964 1964-03-05 2.56 212
1965 1965-02-25 2.902 280
1966 1966-02-14 2.972 294
1967 1967-05-26 2.74 248
1968 1968-03-18 2.65 230
1969 1969-03-25 2.54 208
1970 1970-02-03 5.31 802
1971 1971-02-27 2.06 129
1972 1972-03-03 5.30 800
1973 1973-06-30 4.93 708
1974 1973-12-21 4.77 668
1975 1975-09-27 6.56 1,140
1976 1976-01-27 6.38 1,090
1982 1982-06-06 4.43 601
1983 1983-04-19 5.02 730
1984 1984-05-31 4.41 595
1985 1985-08-12 3.85 483
1986 1986-03-15 2.97 309
1987 1987-05-23 3.95 505
1988 1988-07-24 2.56 231
1989 1989-08-13 5.03 731
1990 1989-10-21 3.87 494
1991 1990-10-13 3.36 417
1992 1992-01-24 2.02 153
1993 1993-03-29 3.11 377
1994 1994-03-10 3.24 398
1995 1995-03-09 2.24 198
1996 1996-04-16 5.35 726
1997 1996-12-02 3.44 344
1998 1998-03-09 3.40 336
1999 1999-01-19 3.80 410
2000 2000-04-22 3.55 415
2001 2001-06-17 3.74 456
2002 2002-06-07 1.92 133
2003 2002-12-21 2.49 222
2004 2003-12-18 2.92 288
2005 2005-01-14 2.56 237
2006 2005-10-15 8.78 1,990
2007 2007-03-02 3.21 373
2008 2008-02-13 3.60 457
2009 2008-12-12 4.92 783
2010 2010-03-30 3.27 377
2011 2011-03-07 5.61 966
2012 2011-12-08 3.77 500
2013 2013-06-14 3.43 415
2014 2014-03-30 3.19 359
2015 2015-01-19 2.82 281
2016 2016-02-25 2.85 287
2017 2017-04-07 2.09 148
2018 2017-10-30 2.92 301
2019 2019-01-24 4.77 743
2020 2019-12-14 2.86 289
?
  Peak Gage-Height Qualification Codes.
?
  Peak Streamflow Qualification Codes.